Wind_Speed
17 18 21 21 22 24 25 25 24 23 23 20 17 12 9 7 7 7 8 10 10 10 11 10 10 10 11 13 15 17 17 14 13 14 15 16 16 16 15 14 13 12 12 11 11 10 9 8 7 6 6 5 5 6 6 7 7 7 7 8 8 8 9 9 9 8 8 8 8 8 8 7 6 5 5 5 5 6 5 3 3 4 5 3 1
19 20 21 23 22 23 25 25 24 23 23 21 17 13 9 7 7 7 8 9 10 10 10 10 9 10 11 14 16 17 16 13 13 14 15 15 16 15 15 15 14 13 12 12 12 11 11 10 9 8 7 6 6 6 6 7 7 7 7 8 8 9 9 9 9 8 8 8 8 8 8 8 8 7 7 6 5 6 6 4 3 4 5 4 2
22 22 22 23 23 23 25 25 24 23 23 21 17 13 9 8 7 7 7 8 10 10 10 9 9 10 12 14 16 16 15 13 12 14 15 15 15 15 15 15 15 14 13 12 12 12 12 11 10 9 8 7 6 6 6 7 7 7 8 8 8 9 9 9 9 9 9 8 8 8 8 8 9 9 9 8 6 6 7 6 4 4 6 5 3
24 23 23 24 24 23 25 25 24 23 22 22 18 13 10 8 7 7 7 8 9 10 10 9 9 10 12 14 15 15 13 12 13 14 15 15 15 15 15 15 15 15 14 13 13 13 12 12 11 10 9 8 8 7 7 7 7 8 8 8 8 9 9 9 9 9 9 9 9 9 9 9 9 9 10 9 8 7 7 7 5 5 6 7 5
25 24 24 24 24 24 25 24 24 23 23 22 18 13 10 9 8 7 7 7 8 10 10 9 9 10 12 14 15 13 12 12 13 14 15 15 15 16 16 16 16 15 15 15 14 14 13 12 12 11 10 10 9 8 8 7 7 8 8 8 8 9 9 9 10 10 10 10 9 9 9 9 9 9 10 10 10 9 8 8 7 6 6 7 7
26 26 25 25 25 25 25 24 24 24 23 23 19 13 10 9 8 7 7 7 7 9 10 9 10 11 12 14 13 11 10 12 14 15 15 15 16 16 16 16 16 16 16 16 15 15 14 13 12 12 11 11 11 10 9 8 8 8 8 8 9 9 9 9 10 10 10 10 10 10 9 9 9 9 10 10 10 10 9 9 8 7 7 8 9
28 27 26 25 25 26 25 24 24 24 24 23 19 13 11 9 9 8 7 8 7 8 10 10 10 11 13 14 11 10 10 12 14 15 15 16 16 16 16 17 17 17 17 17 16 15 14 13 13 13 13 12 12 12 11 10 10 9 9 9 9 9 9 10 10 11 11 11 11 11 10 10 9 9 10 10 10 10 10 9 9 9 8 9 10
28 27 26 26 26 26 25 25 24 25 24 22 18 13 11 10 9 8 8 8 8 7 9 10 11 12 13 13 10 9 10 12 13 14 15 16 16 16 16 17 17 17 17 18 17 16 15 14 14 14 14 14 14 14 13 12 11 11 10 10 10 10 10 10 11 11 11 11 11 11 11 10 10 10 10 10 11 11 11 10 10 9 9 9 11
29 28 28 27 27 25 25 25 25 25 24 21 17 13 11 10 9 8 8 8 8 8 9 11 11 12 13 11 9 9 10 12 13 14 15 15 15 15 16 17 17 17 17 17 18 17 16 16 15 15 15 15 16 15 15 14 13 12 11 11 11 10 10 11 11 11 11 12 12 12 11 11 11 11 11 11 11 11 11 11 10 10 10 10 11
29 29 29 28 27 25 25 25 25 26 23 21 17 13 12 10 9 9 9 9 9 8 9 11 11 12 12 10 8 9 10 12 13 13 14 15 15 15 16 17 17 17 17 17 17 18 18 18 17 16 16 16 16 17 17 16 15 14 13 12 11 11 11 11 11 11 12 12 12 12 12 12 11 11 12 12 12 12 12 12 12 12 11 11 11
30 30 30 28 27 25 24 24 26 25 23 20 16 13 12 10 9 9 9 9 9 8 9 10 11 12 11 9 7 8 10 12 13 13 14 15 15 15 16 16 17 17 17 17 17 18 18 18 18 18 17 17 17 17 17 17 17 16 15 14 13 12 12 11 11 12 12 12 12 13 13 13 12 12 12 12 13 13 13 13 13 13 13 13 12
31 30 29 27 26 25 24 25 26 25 22 19 16 14 12 11 9 8 9 9 9 9 9 10 11 11 11 8 7 8 10 12 13 13 14 15 15 16 16 16 17 16 16 16 16 17 18 18 18 18 18 18 18 17 18 18 18 18 17 16 16 15 14 14 13 13 13 13 13 13 13 13 13 12 12 12 13 13 14 14 14 14 14 14 13
31 29 27 26 25 24 24 25 26 24 20 18 16 14 12 11 9 9 9 10 10 9 9 10 12 11 10 8 7 9 10 12 12 13 14 14 15 16 16 16 16 16 15 15 16 17 17 18 18 18 18 18 18 18 18 18 18 18 18 17 16 16 16 15 15 15 15 14 13 13 13 13 13 13 13 13 13 13 14 14 14 14 14 14 14
29 27 25 24 23 23 24 26 25 22 19 17 15 14 12 11 9 9 9 10 10 9 9 10 12 11 10 8 7 9 10 11 12 12 13 14 15 16 16 16 16 16 16 15 15 16 17 17 17 18 18 18 18 18 18 18 18 18 18 17 17 16 16 16 16 16 16 16 15 14 13 13 13 14 13 13 13 14 14 14 14 13 13 13 13
26 25 24 23 23 23 25 26 24 20 18 16 15 14 13 11 10 9 10 10 10 10 9 10 12 11 10 8 6 8 10 11 12 12 13 14 15 16 16 17 17 17 16 16 16 16 16 17 17 17 18 18 18 18 18 18 17 18 18 18 17 17 17 17 16 16 17 17 17 16 15 14 14 14 14 14 13 14 14 14 13 13 12 12 12
25 24 23 22 22 24 26 25 22 19 17 15 15 14 13 12 11 10 10 10 10 10 10 10 11 10 10 8 6 8 10 10 11 12 13 14 15 16 16 17 17 17 17 17 17 16 16 16 17 17 17 17 17 18 18 18 17 17 18 18 18 17 18 18 18 17 17 17 17 17 17 17 16 15 15 14 14 14 14 13 13 13 12 12 12
24 23 22 22 23 24 26 24 20 18 16 15 14 14 13 13 12 10 10 10 10 10 10 10 10 10 9 8 6 8 9 10 10 11 13 14 15 15 16 17 17 17 18 18 18 18 17 16 17 17 17 17 17 17 17 17 17 17 17 18 18 17 18 19 19 19 18 18 17 17 17 18 18 17 16 16 15 15 14 14 13 13 13 12 12
24 23 22 22 23 25 25 22 18 17 16 15 15 14 14 13 12 11 11 10 10 10 10 10 10 10 9 8 6 8 9 9 10 11 12 14 15 15 16 16 16 17 17 18 19 19 18 17 17 17 17 17 17 17 17 18 18 17 17 17 17 17 17 18 19 20 20 19 19 18 17 17 18 18 18 17 16 16 15 14 14 13 13 12 12
24 23 22 23 24 25 23 20 18 16 16 16 15 15 14 14 13 12 11 10 10 10 9 9 10 10 9 8 7 8 8 9 10 11 12 14 15 15 16 16 16 16 17 18 18 19 19 19 18 17 16 16 17 17 17 18 18 18 17 17 17 17 17 17 18 19 20 20 19 20 19 18 18 19 19 19 18 17 16 16 15 14 13 13 12
25 23 23 23 24 24 21 19 18 17 16 16 15 15 14 14 13 12 10 10 10 9 9 10 10 9 9 8 8 8 9 9 9 10 12 14 15 16 16 17 16 16 16 17 18 18 19 19 19 19 18 17 16 17 17 18 18 18 18 18 17 17 17 18 18 18 20 20 20 20 21 20 19 19 19 19 19 19 18 17 17 16 15 14 13
25 24 24 24 24 22 20 19 18 17 17 16 16 15 14 14 13 11 10 10 10 9 9 10 10 9 9 9 9 9 10 10 10 10 12 14 15 16 16 17 17 16 16 16 16 17 18 18 19 19 19 18 17 16 16 17 18 18 19 19 18 18 18 18 19 19 19 19 20 21 22 22 20 19 20 20 20 20 19 18 18 17 16 15 14
25 24 24 24 23 21 19 19 18 17 16 16 16 15 15 14 12 11 10 10 9 9 10 10 10 10 10 10 10 10 11 11 11 11 12 14 15 16 16 17 17 16 16 15 15 16 16 17 18 18 19 19 19 17 16 16 17 17 17 19 19 19 20 19 19 20 20 20 20 21 22 22 20 19 20 20 21 21 20 19 19 18 17 16 16
26 24 24 24 22 20 19 18 18 17 16 16 16 15 14 13 12 11 10 10 10 9 10 10 10 10 11 11 11 11 11 11 11 12 13 14 15 16 16 17 17 16 15 15 14 15 15 15 16 16 17 18 19 19 18 17 16 17 17 17 18 19 20 21 20 20 21 20 20 20 21 20 20 20 20 20 20 21 21 20 20 19 18 17 17
26 24 23 23 21 20 19 18 18 17 16 16 16 15 14 13 12 11 10 10 10 10 10 11 11 11 11 12 12 12 12 12 12 12 13 14 15 16 16 16 17 16 15 15 14 14 15 15 15 15 16 17 18 19 20 19 17 17 17 17 18 19 21 22 22 21 21 21 20 20 20 20 20 21 21 20 20 20 21 21 20 20 19 18 17
25 23 23 22 21 20 18 18 17 17 17 16 16 16 14 13 12 11 11 11 11 11 11 12 11 11 12 13 13 13 13 13 13 13 14 15 16 17 17 16 16 16 14 14 14 15 15 15 15 15 15 16 17 18 20 20 19 18 18 17 18 19 21 22 23 23 23 22 21 21 21 20 20 21 21 21 21 20 20 21 21 20 20 19 18
25 24 23 22 21 20 18 18 18 18 17 17 16 16 15 13 13 12 12 12 12 12 13 12 12 12 13 14 14 14 13 13 13 14 14 16 17 18 18 17 17 16 14 14 14 14 15 14 14 14 14 14 15 17 18 20 21 21 20 19 18 18 19 21 23 24 25 25 23 22 22 21 21 20 21 22 22 21 20 20 21 20 20 19 19
25 24 23 22 21 20 19 18 18 18 17 17 17 16 15 14 14 14 13 13 14 14 13 13 13 14 14 14 14 14 13 13 14 14 15 16 18 19 19 19 19 18 16 16 15 14 14 14 13 13 13 13 14 15 17 19 21 22 22 22 21 21 20 21 22 24 25 26 24 23 23 22 22 21 20 21 21 22 22 21 21 20 20 20 19
25 24 23 21 21 20 19 19 18 18 17 17 17 16 15 15 15 15 15 15 15 15 14 14 15 14 15 15 14 14 13 13 14 14 15 16 18 18 19 19 19 19 17 17 16 15 15 14 15 15 14 14 14 15 16 18 20 22 23 24 24 24 23 23 23 24 24 25 25 24 24 23 23 22 21 20 20 21 22 23 22 21 20 20 20
25 24 22 21 21 21 20 19 18 18 18 18 17 16 16 16 16 16 16 16 16 16 16 16 15 15 15 15 14 14 13 13 14 14 15 17 18 18 19 19 19 19 18 17 17 17 16 16 16 17 16 15 15 16 16 17 19 21 23 24 25 25 25 25 25 25 25 25 24 23 24 25 23 23 22 21 20 20 20 22 23 23 21 20 20
25 24 23 22 22 21 20 19 18 18 18 18 18 17 17 17 17 17 17 17 17 17 17 17 16 15 15 15 14 14 13 13 13 14 15 16 18 19 19 19 19 18 18 18 17 18 17 17 17 18 17 17 16 16 17 18 19 20 22 23 24 26 26 26 26 26 27 27 26 24 24 25 24 24 24 23 23 21 20 21 23 23 22 21 21
24 24 24 23 23 21 19 19 18 19 19 19 19 18 18 18 18 19 19 19 18 18 18 17 15 15 15 15 14 13 13 13 13 14 15 16 18 19 20 19 19 18 18 18 17 17 17 17 17 18 18 18 18 18 18 19 20 21 22 23 24 25 27 27 27 27 28 29 28 26 25 25 25 25 24 25 24 23 22 21 21 23 23 21 21
24 25 25 25 24 22 19 19 19 19 19 20 20 20 19 19 20 20 20 20 20 19 18 16 15 16 15 15 14 13 13 13 13 14 15 16 18 19 20 20 20 19 18 18 17 17 17 17 17 17 18 18 19 19 19 20 20 21 22 24 24 25 27 28 29 29 28 30 30 30 28 26 26 26 26 26 26 25 23 22 21 22 23 22 21
25 25 26 26 25 23 21 20 20 20 20 21 21 21 21 21 22 22 22 22 21 19 17 16 16 16 15 15 14 13 13 13 13 14 15 16 18 19 20 20 20 19 18 18 17 17 17 17 17 17 17 18 18 19 20 20 21 22 23 24 24 26 28 29 31 31 30 31 31 32 31 29 27 28 27 27 27 26 24 23 21 21 23 23 22
26 25 26 27 26 24 23 21 21 21 21 21 21 21 22 22 23 23 22 22 20 19 17 17 16 16 15 14 14 13 13 12 13 14 15 16 18 19 20 19 19 18 18 18 18 18 18 17 16 16 17 18 19 20 21 21 22 23 24 24 25 26 28 30 32 33 33 33 32 33 34 33 30 28 28 28 28 28 27 24 23 22 23 23 23
25 26 27 27 27 25 23 23 22 22 22 22 22 22 22 23 23 23 22 21 19 18 18 18 17 15 14 14 13 12 12 12 13 14 15 17 18 19 19 19 19 18 18 18 18 18 18 17 17 16 17 18 19 21 22 22 23 25 25 26 26 28 30 31 32 34 35 35 34 34 34 34 32 30 29 30 29 29 29 27 25 24 23 24 25
26 27 28 28 27 25 24 24 24 23 23 22 22 22 23 24 24 22 21 20 19 19 18 17 16 14 13 13 12 12 12 12 13 14 15 16 18 18 19 18 18 18 18 18 18 18 17 17 16 16 18 19 21 22 23 24 25 26 27 28 29 30 31 32 34 35 36 36 36 35 34 34 34 32 30 30 30 30 30 30 28 26 24 25 26
30 29 29 29 27 26 25 25 24 23 22 22 23 23 24 25 23 21 20 18 18 19 18 16 15 13 13 12 12 12 12 13 13 15 16 17 17 18 18 18 18 18 18 18 18 17 17 17 17 17 18 20 22 23 24 25 26 27 28 30 30 31 32 33 35 36 36 36 36 35 34 34 34 33 31 31 31 31 31 31 30 28 25 25 26
31 30 30 28 27 26 26 24 24 24 24 25 25 26 26 24 21 20 19 18 19 18 16 14 13 12 12 11 11 11 12 13 14 15 16 16 17 17 17 17 18 18 18 18 17 17 17 17 18 19 20 21 23 24 26 27 27 29 30 31 32 32 33 34 35 36 36 36 34 33 32 33 33 32 32 32 31 31 31 31 30 29 27 26 25
32 31 29 27 27 26 25 25 26 26 26 26 27 26 25 22 20 19 18 18 18 16 14 13 12 12 11 11 10 11 12 13 14 15 16 16 16 17 17 17 17 18 18 18 18 17 17 17 18 19 21 22 24 25 26 27 28 29 30 31 33 34 34 35 36 37 37 36 34 31 30 31 31 31 32 32 31 31 31 30 30 30 28 26 25
33 31 28 27 27 27 27 27 26 26 25 25 25 25 24 22 21 19 18 18 17 14 13 12 11 11 11 10 10 11 12 13 14 15 16 16 16 17 17 17 18 18 18 18 18 18 18 18 19 20 22 24 25 26 27 28 29 30 31 31 33 34 36 37 38 38 37 36 33 31 31 31 31 29 30 32 32 32 31 29 29 30 29 28 27
32 30 29 29 28 28 28 27 24 23 22 23 23 24 24 23 22 20 18 16 16 14 12 12 11 11 10 9 10 11 13 13 14 15 15 16 17 17 17 17 17 18 18 18 19 19 19 19 20 21 22 24 26 27 28 29 29 30 30 31 33 34 36 37 38 38 37 35 32 30 31 31 32 30 30 31 32 31 31 30 29 30 29 28 28
28 27 28 28 28 28 27 23 21 20 20 21 22 23 23 22 22 20 18 16 16 14 12 12 11 10 9 10 11 12 13 13 14 15 15 16 16 17 17 17 17 18 18 19 19 19 20 20 21 22 23 25 26 27 27 28 29 30 30 31 33 35 36 38 38 38 38 36 31 30 31 32 33 32 31 30 31 32 32 31 30 29 29 28 28
25 24 26 27 27 27 26 23 21 21 20 21 21 21 22 21 19 18 17 16 16 14 13 12 10 9 9 10 12 13 13 13 14 15 16 16 16 17 17 17 18 18 19 19 19 20 20 21 22 23 24 25 27 28 28 28 29 30 31 32 34 35 37 38 39 38 37 36 32 31 33 33 33 33 32 29 29 32 33 32 30 29 29 28 27
23 25 28 28 27 28 27 24 23 21 21 22 21 20 20 17 14 15 17 16 16 14 13 11 10 10 10 11 12 13 13 14 14 15 16 16 16 17 17 18 18 19 19 20 20 20 21 22 23 24 25 26 27 28 28 28 29 30 32 34 36 36 37 38 39 38 38 36 33 34 34 32 32 32 31 29 29 31 32 32 31 29 29 28 27
23 26 29 27 26 29 28 23 22 22 22 21 20 20 20 15 13 16 18 17 15 14 12 11 11 11 11 12 13 13 13 14 14 15 16 16 16 17 17 18 19 19 19 20 20 21 22 22 24 25 26 26 27 27 28 29 29 30 32 34 36 37 37 38 38 37 37 35 34 34 34 31 30 29 29 29 30 30 31 30 30 29 28 28 27
25 25 27 27 27 28 27 23 21 22 21 19 17 19 19 15 16 17 17 17 15 13 13 12 11 11 12 12 12 13 14 14 15 15 15 15 16 17 18 18 19 19 19 20 20 21 22 23 24 25 26 27 27 27 28 29 30 31 32 35 37 37 36 36 37 38 35 34 34 33 32 31 28 28 28 30 32 30 28 28 28 28 28 27 27
27 25 26 28 27 25 24 22 21 21 20 18 17 18 17 15 17 17 17 16 14 13 13 12 11 11 12 13 13 13 14 14 15 15 14 15 16 17 18 18 19 19 19 20 21 21 23 24 25 26 26 27 27 28 29 29 30 31 32 35 37 38 38 36 38 39 34 32 33 33 32 31 28 27 28 28 30 29 25 26 28 27 27 27 28
24 24 25 27 26 23 21 22 22 22 22 21 20 20 18 17 17 17 16 15 14 14 13 12 12 12 12 12 13 14 14 15 14 14 14 14 15 16 17 18 18 19 19 20 21 22 23 24 25 26 27 28 28 28 29 29 30 32 33 35 37 38 39 38 38 39 36 32 31 32 32 31 29 27 26 24 26 26 24 24 26 27 27 27 26
21 23 24 24 23 21 21 22 23 23 22 22 22 21 18 16 16 16 15 14 14 13 12 12 12 12 12 12 13 14 14 14 14 13 13 13 14 15 16 17 18 19 19 20 22 23 24 25 26 27 28 28 29 29 30 30 31 32 33 35 36 37 38 38 38 38 38 35 32 31 31 31 29 27 25 24 24 25 24 23 24 26 27 26 26
24 26 26 23 22 22 21 22 23 21 20 20 21 20 17 15 15 15 15 14 13 13 12 12 12 12 13 13 13 14 14 14 13 13 13 14 15 16 17 18 18 19 20 21 22 23 24 25 26 27 28 29 30 30 31 31 32 32 33 34 35 36 37 37 37 37 37 37 34 31 30 29 28 26 24 24 24 24 22 21 21 24 25 25 26
25 25 25 22 22 23 23 23 22 20 18 19 18 17 15 15 15 15 15 14 13 12 12 12 12 12 13 13 14 14 14 14 14 14 15 15 16 17 18 19 19 20 21 22 23 24 25 26 27 28 29 29 30 31 31 32 32 33 33 34 35 36 36 36 36 36 37 37 34 31 29 28 26 24 22 21 22 21 20 19 19 20 22 24 26
Wind_Direction
325 329 333 336 338 337 337 341 345 344 346 347 341 332 318 317 323 333 345 349 353 359 6 11 12 12 9 5 6 5 4 5 6 8 8 8 6 5 4 4 6 5 5 6 5 4 2 2 4 6 6 0 352 346 338 332 331 330 331 333 332 331 329 328 328 327 326 322 319 316 315 313 310 310 314 314 317 310 303 320 328 310 288 268 182
322 325 329 332 334 334 333 336 340 340 341 343 340 328 313 309 315 326 339 347 348 355 1 7 10 8 6 2 2 1 1 4 6 8 7 7 6 4 2 3 4 4 2 2 1 0 359 358 357 358 359 356 351 343 337 333 330 329 327 326 324 323 322 321 320 320 320 318 317 316 316 315 314 310 309 310 316 313 305 311 319 304 288 279 279
316 320 324 328 330 330 330 332 335 336 337 339 337 324 307 301 307 318 332 345 343 348 355 2 6 3 2 0 359 358 360 4 6 7 6 5 6 5 2 1 2 3 2 0 359 357 356 356 353 353 351 348 348 343 336 333 329 327 324 322 319 318 316 316 316 317 318 317 316 315 314 313 314 313 311 309 310 311 306 304 305 301 293 284 286
312 316 319 324 325 326 327 328 330 332 332 333 334 322 303 295 301 310 325 339 340 343 349 355 358 358 358 358 356 357 0 4 6 6 6 5 5 4 3 2 1 2 2 1 359 357 355 353 353 350 347 343 341 340 337 333 329 326 324 323 320 317 315 314 316 317 318 317 315 313 311 310 311 313 311 308 305 305 303 301 297 297 294 287 284
309 311 315 319 320 323 324 324 325 328 328 328 329 318 299 290 296 306 319 330 337 337 339 346 350 353 354 355 355 357 2 3 4 5 7 6 5 5 3 2 1 2 2 2 1 358 356 353 353 350 346 342 338 335 333 330 327 325 324 323 319 318 315 315 315 317 318 317 314 310 309 307 308 310 309 307 304 301 299 297 294 292 292 289 285
305 306 311 313 316 320 319 320 321 324 325 324 323 314 295 287 292 301 313 321 331 330 330 338 343 349 352 353 356 359 4 4 3 4 6 7 6 5 4 2 1 1 1 3 3 1 358 354 352 350 348 344 340 335 330 327 324 324 323 321 319 318 317 316 316 317 318 318 316 312 308 306 307 309 309 307 302 299 297 296 294 290 291 291 288
300 302 307 308 313 316 316 316 318 322 322 320 317 308 291 283 289 297 306 312 322 323 322 331 339 347 350 353 359 3 5 4 3 4 6 7 8 6 5 3 1 360 1 3 5 4 359 355 352 350 349 346 343 339 334 329 324 321 319 319 319 320 319 317 316 315 316 318 317 314 311 308 307 306 308 307 303 297 295 295 296 294 293 293 291
296 300 304 306 311 312 313 313 317 319 319 317 311 303 287 279 284 293 299 306 317 317 315 325 337 344 349 355 2 5 5 4 3 4 6 8 9 7 6 4 2 360 359 0 2 3 360 356 352 350 348 347 345 342 339 334 328 322 318 317 318 320 320 316 314 313 313 314 314 314 314 311 307 303 302 304 304 300 296 295 296 297 295 294 294
294 299 302 305 309 310 311 311 315 317 316 312 305 297 282 275 280 288 296 303 311 313 311 320 334 342 347 354 3 6 5 5 3 4 6 9 10 9 7 5 3 0 359 358 357 358 358 356 353 351 348 346 345 343 341 337 333 326 320 315 315 317 317 316 313 312 311 310 311 312 313 311 307 302 299 298 300 301 299 297 296 297 298 296 294
294 297 300 304 306 307 308 309 312 314 314 307 298 290 277 272 277 286 295 301 307 308 307 315 329 338 344 351 2 7 6 5 3 5 6 8 9 9 8 7 4 2 360 356 355 354 355 355 354 352 349 347 344 342 340 338 335 330 325 318 314 313 313 314 313 313 312 311 311 309 308 307 305 302 299 296 296 298 299 298 297 296 297 297 294
292 295 298 301 303 304 305 307 310 312 309 301 292 283 273 268 274 285 293 298 302 304 304 309 323 334 341 347 358 6 6 4 3 5 6 6 7 8 8 7 6 4 1 356 354 353 352 353 352 351 350 348 346 343 341 338 337 334 331 326 320 315 312 310 310 311 311 312 311 308 306 305 304 302 300 297 294 294 295 295 296 296 295 295 294
289 292 295 298 300 301 303 305 308 309 304 295 286 278 270 265 272 284 289 295 297 300 301 304 317 329 337 342 354 4 5 4 3 4 4 4 4 5 5 5 6 4 1 357 354 352 351 350 349 349 348 347 347 345 344 342 340 338 335 332 329 323 317 311 307 306 306 307 307 306 305 303 303 303 302 298 295 293 292 293 294 296 297 296 294
288 289 293 296 297 299 301 303 306 306 299 289 280 274 267 264 271 279 285 290 291 295 296 300 312 326 335 338 350 3 4 3 2 2 1 2 2 2 2 2 2 2 0 357 354 350 348 348 347 346 345 345 345 346 344 343 341 338 336 333 330 327 322 316 310 305 302 301 302 304 304 304 304 304 304 301 298 295 294 293 294 296 299 300 296
285 287 291 293 294 298 300 302 305 301 293 284 274 271 266 263 268 274 281 284 286 290 292 297 310 324 333 337 348 359 0 0 0 0 359 359 359 359 359 358 357 357 357 356 354 350 346 345 345 344 344 343 343 344 342 341 340 338 336 333 330 329 326 323 319 313 308 304 302 303 304 304 304 304 304 303 302 300 299 297 296 297 300 302 300
283 285 288 290 293 296 298 301 302 296 287 276 270 269 264 261 263 269 275 279 282 286 290 296 309 323 333 338 345 353 354 356 359 357 357 355 355 356 356 355 353 352 352 353 353 351 347 344 343 343 342 342 341 341 341 340 339 338 337 336 334 332 330 328 325 321 318 313 309 306 304 303 303 302 302 302 302 302 302 300 298 298 299 301 301
281 284 285 289 292 294 298 299 297 290 279 269 266 265 261 258 260 265 269 274 278 282 288 296 311 322 332 341 342 344 347 352 355 354 353 352 351 353 353 352 350 349 348 348 350 350 348 344 341 341 341 341 340 340 341 340 339 338 337 337 337 335 333 330 327 324 323 320 316 311 307 305 304 302 302 301 302 302 302 301 299 299 300 301 300
279 282 285 289 291 294 296 295 292 282 272 263 261 260 257 255 256 260 264 269 274 279 287 298 311 320 332 340 336 333 340 348 349 349 349 348 349 350 350 350 348 347 346 345 346 347 347 345 341 339 340 340 339 339 340 340 339 338 336 335 335 336 335 333 329 326 325 323 321 316 309 306 304 302 301 300 301 301 300 300 299 298 301 304 303
278 281 285 288 290 293 294 291 285 275 265 258 257 256 253 252 253 255 260 266 270 277 289 300 309 318 331 334 326 324 333 340 340 343 345 345 346 347 348 347 346 345 344 343 343 344 345 344 342 339 337 338 338 337 338 339 339 337 335 333 332 333 334 333 329 326 325 324 323 319 313 308 303 301 300 299 299 299 299 299 297 296 298 303 304
276 280 283 285 289 292 290 286 278 268 259 254 254 253 251 251 251 254 259 264 270 279 291 299 307 317 326 324 316 316 325 330 331 337 340 343 343 343 345 344 344 343 342 342 341 342 343 343 342 341 338 336 336 335 335 336 337 336 334 331 330 331 331 329 326 323 323 323 322 319 315 312 306 302 299 299 299 298 299 298 298 296 295 298 301
274 278 281 284 288 289 286 279 271 262 254 251 251 252 251 251 252 256 260 265 272 282 291 297 308 315 315 312 309 309 315 319 324 331 335 340 340 340 341 342 342 342 341 341 341 341 342 342 340 341 340 337 335 333 332 332 333 333 331 330 330 330 327 326 324 320 319 319 319 317 314 311 308 305 302 299 299 299 298 297 297 296 295 294 296
273 276 280 284 286 285 280 273 265 257 252 250 249 250 251 253 256 258 260 265 274 282 290 297 306 308 305 303 303 304 308 312 317 324 332 337 337 338 338 340 339 339 341 341 341 341 341 342 340 340 340 338 335 332 330 329 329 329 329 328 328 328 326 326 324 320 318 317 318 316 315 312 307 307 306 302 299 299 298 297 296 295 295 294 294
272 275 280 283 283 280 274 266 259 253 250 249 248 249 251 254 256 257 260 265 272 281 287 296 300 298 297 298 299 300 303 307 312 319 328 334 335 335 336 336 336 337 339 341 341 341 342 341 340 340 338 337 334 332 330 327 325 325 325 325 326 326 325 326 325 322 319 319 318 316 317 316 310 308 309 306 302 299 299 298 296 295 294 294 293
269 274 279 280 279 276 268 260 255 251 249 248 247 248 250 252 255 257 260 266 272 280 286 290 291 291 292 293 294 296 299 303 309 316 322 330 332 333 334 333 334 335 336 339 339 339 340 340 339 339 338 336 333 331 330 328 324 321 322 322 322 323 322 322 323 322 319 320 319 315 316 315 311 307 308 308 304 300 297 297 296 295 293 292 291
268 274 278 276 274 270 261 255 252 250 249 247 246 247 249 252 255 259 262 268 275 280 283 283 284 289 289 288 290 293 297 302 307 310 317 326 329 330 331 332 332 332 335 336 336 338 338 338 338 338 338 336 332 330 329 330 326 321 321 320 319 319 318 318 318 318 316 317 317 314 314 313 309 306 306 307 305 301 296 294 293 293 292 290 290
268 273 274 272 270 264 255 251 250 249 248 247 246 247 249 252 255 259 264 269 275 277 276 278 283 285 284 285 288 292 297 302 305 307 315 323 327 329 328 331 331 328 333 333 333 338 337 337 338 339 340 337 334 333 331 331 330 327 325 322 320 319 317 316 315 314 313 313 313 312 312 311 309 305 303 303 305 303 297 292 290 290 289 288 287
267 271 271 268 266 259 251 248 250 249 249 248 248 249 250 252 255 258 263 266 268 270 271 276 279 278 279 282 285 291 296 301 305 307 313 321 326 327 327 330 328 326 331 331 330 334 333 334 338 339 342 341 339 336 334 332 330 329 328 326 324 321 319 316 315 314 312 311 311 309 308 309 308 306 302 300 301 302 300 295 290 287 286 286 283
267 270 267 264 262 255 249 247 249 251 251 251 251 251 251 251 254 256 258 261 263 266 269 270 272 274 277 279 283 289 295 300 304 307 311 318 324 325 326 328 327 328 329 330 329 330 330 331 332 335 338 340 338 335 332 329 327 326 325 325 325 323 321 318 316 315 313 312 311 308 306 306 305 304 302 298 296 297 299 297 292 287 283 283 282
268 269 263 260 259 253 249 247 247 251 252 252 253 251 251 250 252 254 255 258 260 263 264 265 267 271 274 277 282 288 293 298 302 305 309 315 320 321 323 325 326 327 327 328 329 328 330 329 329 330 330 331 330 330 328 325 324 324 323 323 323 323 321 320 318 316 314 314 313 309 305 305 304 302 300 296 292 291 293 295 293 288 282 280 279
266 263 258 256 254 250 247 246 246 249 250 251 252 252 252 251 251 252 253 255 257 259 260 261 264 268 272 277 282 286 291 296 300 302 306 311 316 318 321 322 323 322 323 324 324 325 327 327 327 326 326 327 326 327 328 326 326 325 323 323 324 323 321 321 319 318 316 314 313 309 304 304 303 301 298 296 292 289 290 291 290 287 281 277 275
259 255 252 252 250 247 245 244 244 246 248 249 251 252 252 252 252 252 252 253 254 256 256 259 263 267 273 277 280 285 289 294 297 298 302 308 313 316 317 318 318 317 318 320 320 322 323 324 324 324 325 328 328 330 330 330 330 328 326 325 325 324 322 320 320 319 317 313 311 309 306 304 303 301 298 295 293 291 289 289 287 284 278 274 272
251 249 248 248 246 244 242 242 243 245 247 249 250 251 252 253 253 252 251 251 252 253 255 259 264 268 271 275 279 284 289 292 295 297 301 307 312 314 314 315 314 314 314 315 317 318 320 322 322 323 325 327 330 332 333 333 332 330 329 328 327 324 321 319 318 317 315 313 310 308 306 303 301 300 297 295 293 292 290 288 286 282 277 271 268
244 244 245 245 243 240 239 240 242 245 247 249 250 250 251 252 251 251 250 250 251 254 257 261 265 267 269 274 279 284 287 290 293 295 300 307 311 311 312 313 312 311 311 313 314 315 317 320 320 321 323 326 329 332 333 334 332 331 330 330 328 324 322 321 318 316 314 312 309 307 304 301 299 297 295 293 292 291 290 288 286 282 277 271 266
240 241 243 243 241 238 238 240 243 246 248 249 249 249 249 249 249 249 249 250 252 255 259 261 263 265 269 274 279 283 286 290 291 294 300 307 309 309 310 311 309 309 310 311 313 314 316 317 318 320 322 326 329 331 332 333 332 331 330 329 328 324 322 321 319 316 314 310 307 307 304 300 296 294 293 291 290 289 288 287 286 283 279 272 266
239 240 241 240 239 238 238 241 244 246 247 247 246 245 246 246 246 247 248 250 252 255 258 259 261 264 269 273 277 282 286 288 290 295 302 306 307 308 308 308 307 307 310 311 312 314 314 314 316 319 323 325 326 328 329 331 330 330 329 329 327 324 322 321 319 316 314 309 306 305 304 300 296 292 290 288 287 288 286 284 283 281 280 275 268
240 240 241 239 238 237 237 241 244 244 244 244 243 243 243 244 245 246 248 249 252 255 256 258 260 264 268 272 276 281 284 286 290 297 304 306 307 307 307 306 307 309 310 311 312 312 312 314 316 319 321 322 323 324 325 327 328 328 328 328 327 325 322 320 318 315 313 310 306 302 300 298 295 293 290 286 285 286 285 283 280 279 278 275 270
240 240 240 239 236 235 237 240 241 242 242 241 240 241 242 243 245 245 247 250 252 253 253 256 260 262 266 271 276 279 283 287 293 299 303 306 306 306 306 307 308 309 310 310 310 310 310 311 313 316 318 320 321 322 323 324 325 327 327 328 327 325 323 320 318 316 313 310 305 300 297 294 292 293 290 285 283 283 283 282 280 279 276 273 270
238 239 238 236 234 234 236 237 238 239 238 238 239 239 241 244 244 245 248 248 247 250 253 256 258 261 265 270 275 278 283 289 294 299 303 305 305 306 307 308 309 308 308 308 308 309 309 309 311 313 316 318 320 321 322 323 324 325 326 327 326 324 322 319 318 316 314 310 306 301 298 294 291 290 288 284 281 280 279 280 280 278 276 274 272
237 236 234 232 231 232 233 234 234 234 235 237 239 241 244 245 244 245 244 241 244 250 254 255 257 260 264 268 272 278 283 289 294 299 302 304 306 308 309 308 307 306 306 307 308 308 308 309 311 313 315 317 319 320 321 321 323 324 324 325 324 323 321 319 318 316 314 311 305 301 299 296 291 287 284 282 281 278 275 276 278 277 275 274 273
233 230 229 227 227 228 228 229 230 233 236 240 243 245 247 246 245 244 238 239 247 252 252 253 256 258 261 266 272 278 283 289 295 299 302 306 308 308 308 306 305 306 307 308 308 308 307 306 307 310 313 315 317 318 319 320 322 322 322 322 322 322 321 320 319 317 315 311 304 300 298 296 292 286 282 280 277 276 273 272 274 276 274 271 270
228 224 222 222 224 225 226 229 231 234 240 245 249 251 250 249 247 242 238 244 249 248 250 252 253 255 258 264 272 277 283 289 295 299 304 307 308 307 307 306 306 307 307 308 308 306 304 304 305 308 311 314 316 318 319 320 321 320 320 321 322 323 322 322 321 319 316 311 303 299 299 296 293 288 283 279 274 273 272 269 269 272 272 270 268
223 219 219 221 223 226 229 231 232 236 243 248 253 256 252 244 239 238 241 247 248 246 249 249 247 251 256 263 269 276 283 290 295 302 306 307 308 308 307 306 305 306 305 305 305 303 302 301 303 306 309 313 315 316 317 318 319 319 320 321 322 323 324 323 324 322 318 313 304 298 299 297 294 289 284 281 275 271 269 267 266 267 268 269 267
222 220 223 225 226 231 235 234 235 238 243 249 252 254 247 233 228 236 242 247 249 248 247 245 245 249 255 263 269 276 284 291 298 303 305 306 308 309 308 307 306 305 305 305 305 304 303 303 303 306 309 312 312 312 313 316 318 320 321 322 323 325 325 325 327 325 319 316 308 300 300 299 296 288 281 281 278 270 267 265 264 263 264 265 263
228 228 231 232 231 236 238 238 240 241 242 246 246 243 237 226 223 233 241 246 248 245 243 245 246 250 255 262 269 277 285 292 299 303 306 309 310 311 310 309 308 307 306 306 306 306 306 306 307 308 309 311 311 311 313 316 320 321 322 323 323 325 327 327 329 326 320 315 309 304 302 301 298 288 276 277 280 271 265 263 262 261 261 263 261
232 233 234 234 233 236 240 240 243 245 245 242 236 232 228 220 220 235 244 245 244 241 242 244 245 249 255 262 271 279 287 295 301 305 308 311 313 313 312 312 310 308 307 306 306 307 308 308 308 308 308 309 311 312 314 317 320 321 322 323 324 326 328 328 329 328 322 316 311 307 304 301 301 292 274 272 279 272 264 261 261 260 260 262 261
235 233 232 232 233 236 240 242 242 246 246 239 231 230 227 222 234 248 248 243 241 241 241 243 244 249 257 266 275 282 290 297 303 307 311 314 315 315 314 313 310 308 307 306 307 308 308 308 308 308 309 309 310 312 314 317 319 322 323 323 324 327 329 329 330 329 324 319 313 308 306 303 303 296 277 269 274 270 264 262 260 259 259 261 261
238 235 232 231 232 235 239 240 241 242 243 236 226 227 224 227 244 250 245 240 239 241 241 243 247 254 263 270 278 286 293 300 305 308 313 317 318 318 316 313 310 308 308 308 309 310 310 310 310 310 310 311 312 313 315 317 319 322 324 324 325 327 329 329 331 331 326 321 316 312 309 306 304 295 280 272 271 266 261 261 261 259 258 259 259
242 238 235 232 231 232 233 233 236 237 237 233 228 228 225 232 247 245 238 236 238 242 244 248 253 260 269 275 283 290 296 302 306 310 316 320 321 320 317 314 311 310 310 311 312 312 312 312 311 311 312 313 314 313 314 316 319 322 324 324 325 327 329 331 332 331 328 324 320 316 313 309 305 296 284 277 272 263 258 260 261 259 258 258 259
241 239 236 234 233 230 228 226 229 233 233 233 236 237 232 237 244 237 232 234 239 244 248 254 259 266 274 280 289 294 300 303 306 311 318 322 322 320 317 314 313 313 313 314 314 313 313 312 312 312 313 314 314 313 313 316 319 321 323 324 324 326 328 330 332 330 327 326 322 318 317 314 309 299 288 282 275 266 257 255 259 259 259 259 259
240 245 242 238 236 233 228 223 225 230 231 234 236 234 234 239 235 226 229 236 242 249 254 259 265 272 279 285 291 297 300 301 304 311 317 321 320 318 317 316 316 317 317 317 316 315 313 313 312 312 313 314 313 313 314 316 318 319 321 323 323 325 326 327 330 330 328 327 323 319 318 316 313 304 290 280 279 274 260 252 256 259 259 259 258
247 255 249 242 239 236 232 227 226 229 232 236 235 232 235 236 226 222 232 241 248 255 258 262 269 276 281 287 292 296 297 298 303 309 314 316 315 315 315 316 318 319 319 318 318 317 315 314 313 313 314 314 313 313 313 315 316 317 319 320 321 322 324 326 327 328 329 328 323 320 319 317 316 309 294 280 278 276 264 257 258 257 258 258 257
250 249 241 235 233 233 232 230 228 229 231 230 228 229 231 225 222 229 238 246 253 256 257 263 271 276 282 288 290 290 292 296 301 305 308 309 310 312 314 316 318 318 319 319 319 319 318 317 316 315 314 313 312 312 313 314 315 316 317 318 319 320 321 324 326 326 328 329 325 321 320 320 319 313 301 286 278 272 261 256 260 260 259 258 257
Height
5882 5883 5882 5881 5881 5879 5878 5878 5877 5876 5875 5874 5873 5872 5871 5870 5869 5868 5868 5867 5866 5865 5864 5864 5863 5863 5862 5861 5860 5859 5858 5857 5856 5855 5854 5852 5851 5850 5850 5849 5848 5847 5847 5846 5845 5845 5844 5844 5843 5842 5842 5842 5841 5841 5841 5841 5840 5840 5840 5840 5839 5839 5839 5838 5837 5837 5837 5836 5836 5836 5835 5835 5835 5834 5834 5834 5833 5833 5833 5832 5831 5832 5832 5831 5830
5882 5882 5882 5881 5880 5879 5878 5877 5877 5876 5875 5874 5873 5872 5871 5870 5869 5868 5868 5867 5867 5866 5865 5864 5863 5863 5862 5861 5860 5859 5858 5857 5856 5855 5854 5853 5852 5851 5850 5849 5848 5848 5847 5846 5846 5845 5845 5844 5843 5843 5842 5842 5842 5841 5841 5841 5841 5840 5840 5840 5840 5839 5839 5838 5838 5837 5837 5836 5836 5836 5835 5835 5835 5834 5834 5833 5833 5833 5833 5832 5831 5832 5832 5832 5830
5881 5882 5881 5881 5880 5879 5878 5877 5876 5875 5875 5874 5873 5872 5871 5870 5869 5868 5868 5867 5867 5866 5865 5864 5863 5863 5862 5861 5860 5859 5858 5857 5856 5855 5854 5853 5852 5851 5850 5849 5849 5848 5847 5847 5846 5845 5845 5844 5844 5843 5843 5842 5842 5842 5841 5841 5841 5840 5840 5840 5840 5839 5839 5838 5838 5837 5837 5836 5836 5835 5835 5835 5834 5834 5834 5833 5833 5832 5832 5832 5831 5831 5832 5831 5830
5881 5881 5881 5880 5879 5879 5878 5877 5876 5875 5874 5873 5873 5872 5871 5870 5869 5868 5868 5867 5867 5866 5865 5864 5863 5863 5862 5861 5860 5859 5858 5857 5856 5855 5854 5853 5852 5852 5851 5850 5849 5848 5847 5847 5846 5846 5845 5844 5844 5843 5843 5842 5842 5842 5841 5841 5841 5840 5840 5840 5839 5839 5839 5838 5838 5837 5836 5836 5835 5835 5834 5834 5834 5833 5833 5833 5832 5832 5832 5832 5831 5831 5831 5831 5830
5880 5881 5881 5880 5879 5878 5877 5876 5875 5874 5874 5873 5873 5871 5870 5870 5869 5868 5868 5867 5866 5866 5865 5864 5864 5863 5862 5862 5861 5859 5858 5857 5856 5855 5855 5854 5853 5852 5851 5850 5849 5848 5848 5847 5846 5846 5845 5844 5844 5843 5843 5842 5842 5842 5841 5841 5840 5840 5840 5840 5839 5839 5838 5838 5837 5836 5836 5835 5835 5834 5834 5834 5833 5833 5832 5832 5832 5832 5831 5831 5831 5831 5830 5831 5830
5879 5880 5880 5880 5878 5877 5876 5876 5875 5874 5873 5872 5872 5871 5870 5869 5869 5868 5868 5867 5866 5866 5865 5864 5864 5863 5863 5862 5861 5860 5859 5857 5856 5856 5855 5854 5853 5852 5851 5850 5849 5848 5848 5847 5846 5846 5845 5844 5844 5843 5843 5842 5842 5842 5841 5841 5840 5840 5840 5839 5839 5838 5838 5837 5837 5836 5835 5835 5834 5834 5833 5833 5833 5832 5832 5832 5831 5831 5831 5831 5831 5830 5830 5830 5830
5879 5880 5880 5879 5878 5877 5876 5875 5874 5873 5873 5872 5871 5871 5870 5869 5869 5868 5868 5867 5866 5866 5865 5865 5864 5864 5863 5862 5861 5860 5859 5858 5857 5856 5855 5854 5853 5852 5851 5850 5849 5849 5848 5847 5846 5846 5845 5844 5844 5843 5843 5842 5842 5841 5841 5841 5840 5840 5839 5839 5838 5838 5837 5837 5836 5836 5835 5834 5834 5833 5833 5832 5832 5832 5831 5831 5831 5831 5830 5830 5830 5830 5830 5830 5830
5878 5879 5878 5877 5877 5876 5875 5874 5873 5873 5872 5871 5871 5870 5869 5869 5868 5868 5867 5867 5866 5866 5865 5865 5865 5864 5863 5862 5861 5860 5859 5858 5858 5857 5856 5855 5854 5853 5851 5851 5850 5849 5848 5847 5846 5846 5845 5845 5844 5843 5843 5842 5842 5841 5841 5840 5840 5839 5839 5838 5838 5837 5837 5836 5836 5835 5835 5834 5833 5833 5832 5832 5831 5831 5831 5831 5830 5830 5830 5829 5829 5829 5829 5829 5829
5877 5877 5877 5876 5875 5875 5874 5873 5873 5872 5871 5870 5870 5869 5869 5868 5868 5868 5867 5866 5866 5866 5865 5865 5865 5864 5863 5862 5861 5860 5860 5859 5858 5857 5856 5855 5854 5853 5852 5851 5850 5849 5848 5847 5846 5846 5845 5845 5844 5843 5843 5842 5841 5841 5840 5840 5839 5839 5838 5838 5837 5837 5837 5836 5835 5835 5834 5834 5833 5832 5832 5831 5831 5831 5830 5830 5830 5829 5829 5829 5829 5829 5828 5828 5828
5876 5876 5875 5875 5874 5874 5873 5872 5872 5871 5870 5869 5869 5869 5868 5868 5867 5867 5867 5866 5866 5865 5865 5865 5865 5864 5863 5862 5861 5861 5860 5859 5858 5857 5856 5855 5854 5853 5852 5851 5850 5849 5848 5847 5846 5846 5845 5844 5844 5843 5842 5842 5841 5840 5840 5839 5839 5838 5838 5837 5837 5837 5836 5835 5835 5834 5834 5833 5832 5832 5831 5831 5830 5830 5830 5829 5829 5829 5828 5828 5828 5828 5828 5827 5827
5875 5875 5874 5874 5873 5873 5872 5871 5871 5870 5869 5868 5868 5868 5867 5867 5867 5867 5866 5866 5865 5865 5865 5865 5865 5864 5863 5862 5861 5861 5860 5859 5858 5857 5856 5855 5854 5853 5852 5851 5850 5849 5848 5847 5846 5846 5845 5844 5843 5842 5842 5841 5841 5840 5839 5839 5838 5838 5837 5837 5836 5836 5835 5835 5834 5834 5833 5832 5832 5831 5831 5830 5830 5829 5829 5829 5828 5828 5828 5828 5827 5827 5827 5827 5826
5874 5873 5873 5873 5872 5871 5871 5870 5870 5869 5868 5867 5867 5867 5867 5866 5866 5866 5866 5865 5865 5865 5865 5865 5865 5864 5863 5862 5861 5861 5860 5859 5858 5857 5856 5855 5854 5852 5852 5851 5850 5849 5848 5847 5846 5845 5845 5844 5843 5842 5841 5841 5840 5840 5839 5838 5838 5837 5837 5836 5836 5835 5835 5834 5834 5833 5833 5832 5831 5831 5830 5830 5829 5829 5828 5828 5828 5827 5827 5827 5827 5826 5826 5826 5825
5872 5872 5871 5871 5871 5870 5870 5869 5868 5868 5867 5867 5866 5866 5866 5866 5866 5866 5865 5865 5865 5865 5864 5865 5864 5864 5863 5862 5862 5861 5860 5859 5858 5857 5856 5855 5854 5853 5852 5851 5850 5849 5849 5847 5846 5845 5844 5844 5843 5842 5841 5840 5840 5839 5839 5838 5837 5837 5836 5836 5835 5835 5834 5834 5833 5833 5832 5831 5831 5830 5830 5829 5828 5828 5827 5827 5827 5826 5826 5826 5826 5825 5825 5825 5825
5871 5870 5870 5870 5869 5869 5868 5868 5867 5866 5866 5866 5866 5866 5866 5865 5865 5865 5865 5865 5864 5864 5864 5864 5864 5864 5863 5862 5862 5861 5861 5860 5858 5857 5856 5855 5854 5853 5852 5850 5850 5849 5848 5847 5846 5845 5844 5843 5842 5842 5841 5840 5839 5839 5838 5838 5837 5836 5836 5835 5834 5834 5834 5833 5833 5832 5832 5831 5830 5830 5829 5828 5828 5827 5827 5826 5826 5826 5825 5825 5825 5824 5824 5824 5824
5869 5869 5869 5868 5868 5867 5867 5866 5866 5865 5865 5865 5865 5865 5865 5865 5864 5864 5864 5864 5864 5864 5864 5864 5864 5863 5863 5862 5862 5861 5860 5860 5859 5857 5856 5855 5854 5853 5852 5850 5849 5848 5847 5847 5846 5845 5844 5843 5842 5842 5841 5840 5839 5838 5838 5837 5836 5836 5835 5834 5834 5833 5833 5832 5832 5831 5830 5830 5829 5829 5828 5828 5827 5826 5826 5826 5825 5825 5825 5824 5824 5824 5823 5823 5823
5867 5867 5867 5867 5867 5866 5865 5865 5864 5864 5864 5864 5864 5864 5864 5864 5863 5863 5863 5863 5863 5863 5863 5863 5864 5863 5863 5862 5862 5861 5860 5860 5859 5857 5856 5855 5854 5853 5852 5850 5849 5847 5846 5845 5845 5845 5844 5843 5842 5841 5840 5840 5839 5838 5837 5837 5836 5835 5834 5833 5833 5832 5832 5832 5831 5830 5830 5829 5828 5828 5828 5827 5826 5826 5825 5825 5824 5824 5824 5823 5823 5823 5822 5822 5822
5866 5865 5865 5866 5865 5865 5864 5863 5863 5863 5863 5863 5863 5863 5863 5863 5863 5863 5863 5863 5863 5863 5863 5863 5863 5863 5862 5862 5861 5861 5860 5859 5858 5857 5856 5855 5854 5853 5851 5850 5849 5847 5846 5844 5843 5843 5843 5842 5841 5840 5840 5839 5838 5837 5837 5836 5835 5835 5834 5833 5832 5832 5831 5831 5830 5829 5829 5828 5828 5827 5827 5826 5826 5825 5824 5824 5823 5823 5823 5823 5822 5822 5822 5821 5821
5864 5864 5864 5864 5864 5863 5862 5862 5862 5862 5862 5862 5862 5862 5862 5862 5862 5862 5862 5862 5862 5862 5862 5862 5863 5862 5862 5861 5861 5860 5860 5859 5858 5857 5856 5855 5854 5852 5851 5850 5848 5847 5845 5844 5842 5841 5841 5841 5840 5839 5838 5838 5837 5836 5835 5835 5834 5834 5833 5832 5831 5831 5830 5830 5829 5828 5828 5827 5827 5826 5826 5825 5825 5824 5824 5823 5822 5822 5822 5822 5821 5821 5821 5820 5820
5863 5862 5862 5862 5862 5862 5861 5861 5861 5861 5861 5861 5861 5861 5861 5861 5861 5861 5861 5862 5861 5861 5862 5862 5862 5861 5861 5861 5860 5860 5859 5858 5858 5857 5856 5855 5853 5852 5851 5849 5848 5847 5845 5843 5842 5841 5840 5839 5839 5838 5837 5837 5836 5835 5834 5833 5833 5832 5832 5831 5830 5830 5829 5829 5828 5827 5827 5826 5826 5825 5825 5824 5824 5823 5823 5822 5822 5821 5821 5820 5820 5820 5820 5819 5819
5861 5861 5861 5861 5861 5860 5860 5860 5859 5860 5860 5860 5860 5860 5860 5860 5860 5861 5861 5861 5861 5861 5861 5861 5861 5861 5860 5860 5860 5859 5858 5858 5857 5856 5855 5854 5853 5852 5850 5849 5848 5847 5845 5843 5842 5841 5839 5838 5837 5837 5836 5836 5835 5834 5833 5833 5832 5831 5830 5830 5829 5829 5828 5827 5827 5826 5826 5825 5825 5824 5824 5823 5822 5822 5821 5821 5820 5820 5820 5819 5819 5819 5819 5818 5818
5859 5859 5859 5859 5859 5859 5858 5858 5858 5859 5859 5859 5859 5859 5859 5859 5859 5860 5860 5860 5860 5860 5860 5860 5860 5860 5859 5859 5858 5858 5857 5857 5856 5856 5855 5854 5853 5852 5850 5849 5848 5847 5845 5844 5842 5841 5839 5838 5837 5836 5835 5834 5834 5834 5833 5832 5831 5830 5829 5829 5828 5828 5827 5826 5826 5825 5824 5824 5824 5823 5822 5822 5821 5821 5820 5820 5819 5819 5818 5818 5818 5817 5817 5817 5817
5857 5858 5858 5858 5857 5857 5857 5857 5857 5857 5857 5858 5857 5858 5858 5858 5859 5859 5859 5859 5859 5859 5859 5859 5859 5859 5858 5858 5857 5857 5856 5856 5855 5855 5855 5854 5853 5851 5850 5849 5848 5846 5845 5844 5842 5841 5840 5838 5837 5835 5834 5833 5833 5832 5832 5832 5831 5830 5829 5828 5827 5826 5826 5825 5825 5824 5823 5823 5823 5822 5821 5821 5820 5819 5819 5819 5818 5818 5817 5817 5817 5816 5816 5815 5815
5856 5856 5856 5856 5856 5856 5856 5856 5856 5856 5856 5856 5856 5857 5857 5857 5858 5858 5858 5858 5858 5858 5858 5858 5858 5858 5857 5857 5856 5856 5855 5855 5855 5854 5854 5853 5852 5851 5850 5848 5847 5846 5845 5844 5842 5841 5840 5838 5837 5835 5834 5832 5831 5831 5831 5831 5830 5829 5829 5828 5827 5826 5825 5824 5824 5823 5822 5822 5822 5821 5820 5819 5819 5818 5817 5817 5817 5816 5816 5815 5815 5815 5814 5814 5814
5854 5855 5854 5854 5854 5854 5855 5855 5855 5855 5855 5855 5855 5856 5856 5857 5857 5857 5857 5857 5857 5857 5857 5857 5857 5857 5856 5856 5855 5855 5854 5854 5854 5853 5853 5852 5851 5850 5849 5848 5847 5846 5845 5843 5842 5841 5840 5838 5837 5836 5834 5832 5831 5830 5829 5829 5829 5829 5828 5827 5827 5825 5824 5823 5823 5822 5821 5821 5821 5820 5819 5818 5817 5816 5816 5815 5815 5814 5814 5814 5814 5813 5813 5813 5812
5852 5853 5852 5852 5852 5853 5853 5853 5854 5854 5854 5854 5855 5855 5855 5856 5856 5856 5856 5856 5856 5856 5856 5856 5856 5856 5855 5854 5854 5853 5853 5853 5853 5852 5852 5851 5850 5849 5848 5847 5846 5845 5843 5842 5841 5840 5839 5838 5837 5836 5834 5833 5831 5830 5828 5827 5827 5827 5827 5827 5826 5825 5824 5822 5821 5821 5820 5819 5819 5818 5817 5817 5816 5815 5814 5813 5813 5813 5812 5812 5812 5812 5811 5811 5811
5850 5851 5851 5851 5851 5852 5852 5852 5853 5853 5853 5853 5854 5854 5855 5855 5855 5855 5855 5855 5855 5855 5855 5855 5855 5854 5854 5853 5852 5852 5852 5852 5851 5851 5850 5849 5848 5847 5846 5846 5845 5843 5842 5841 5841 5840 5839 5837 5836 5836 5834 5833 5831 5830 5828 5827 5826 5825 5825 5825 5824 5824 5823 5821 5820 5819 5818 5818 5818 5817 5816 5815 5814 5814 5813 5812 5811 5811 5810 5810 5810 5810 5810 5810 5809
5848 5849 5849 5849 5850 5850 5851 5851 5852 5852 5852 5852 5853 5853 5854 5854 5854 5854 5853 5854 5854 5854 5854 5853 5853 5853 5852 5852 5851 5851 5851 5851 5850 5850 5849 5848 5848 5846 5845 5844 5844 5842 5841 5841 5840 5839 5838 5837 5836 5835 5834 5833 5832 5830 5828 5827 5825 5824 5823 5823 5822 5822 5821 5821 5819 5818 5817 5816 5816 5815 5814 5814 5813 5812 5811 5810 5810 5809 5809 5808 5808 5808 5808 5808 5808
5847 5847 5847 5848 5848 5849 5850 5850 5851 5851 5851 5852 5852 5852 5853 5853 5852 5852 5852 5852 5852 5852 5852 5852 5851 5851 5851 5850 5850 5850 5850 5850 5849 5848 5848 5847 5846 5845 5844 5843 5842 5841 5840 5840 5839 5838 5837 5836 5835 5834 5833 5832 5831 5830 5828 5827 5825 5823 5822 5821 5820 5820 5819 5818 5818 5817 5815 5814 5814 5813 5812 5811 5811 5810 5810 5809 5808 5808 5807 5807 5806 5806 5806 5806 5806
5845 5845 5845 5846 5847 5848 5848 5849 5850 5850 5850 5850 5851 5851 5851 5851 5851 5851 5851 5851 5850 5850 5850 5850 5850 5850 5849 5849 5849 5849 5849 5849 5848 5847 5847 5846 5845 5844 5843 5842 5841 5840 5840 5839 5838 5837 5836 5835 5834 5833 5832 5832 5830 5829 5828 5827 5825 5823 5822 5820 5819 5818 5817 5816 5815 5814 5813 5812 5812 5812 5810 5809 5809 5808 5807 5807 5806 5806 5806 5805 5804 5804 5804 5804 5804
5842 5843 5844 5845 5846 5846 5847 5848 5848 5848 5849 5849 5849 5849 5849 5849 5849 5849 5849 5849 5849 5848 5848 5848 5848 5848 5848 5848 5848 5848 5848 5847 5847 5846 5846 5845 5844 5843 5842 5842 5841 5840 5839 5838 5837 5836 5835 5834 5833 5832 5831 5830 5829 5828 5827 5826 5825 5823 5822 5820 5818 5816 5815 5814 5813 5811 5810 5810 5809 5809 5809 5807 5806 5806 5805 5805 5804 5804 5803 5803 5802 5802 5802 5801 5801
5841 5841 5842 5843 5844 5845 5845 5846 5846 5847 5847 5848 5848 5848 5848 5848 5848 5847 5847 5847 5846 5846 5846 5847 5847 5847 5847 5847 5847 5847 5846 5846 5846 5845 5845 5844 5843 5842 5841 5840 5840 5839 5838 5837 5836 5835 5834 5833 5832 5831 5830 5829 5828 5827 5826 5825 5824 5823 5821 5820 5818 5816 5814 5812 5811 5810 5809 5807 5806 5806 5806 5805 5804 5803 5803 5802 5802 5801 5801 5801 5800 5799 5799 5799 5799
5839 5839 5840 5841 5842 5843 5844 5844 5844 5845 5845 5846 5846 5846 5846 5846 5846 5845 5845 5844 5844 5844 5845 5845 5845 5845 5845 5845 5845 5845 5845 5845 5844 5844 5843 5842 5842 5841 5840 5839 5838 5837 5836 5836 5835 5834 5833 5832 5831 5830 5829 5828 5827 5826 5825 5824 5823 5822 5820 5819 5817 5815 5813 5811 5809 5808 5807 5805 5804 5803 5803 5803 5801 5800 5800 5799 5799 5798 5798 5798 5798 5797 5797 5797 5797
5837 5838 5838 5839 5840 5841 5842 5842 5843 5843 5844 5844 5844 5844 5844 5844 5843 5843 5843 5842 5843 5843 5843 5843 5843 5843 5843 5843 5843 5843 5844 5843 5843 5843 5842 5841 5841 5840 5839 5838 5836 5836 5835 5834 5833 5832 5832 5831 5830 5829 5828 5827 5826 5825 5824 5823 5821 5820 5819 5817 5816 5814 5811 5810 5808 5806 5805 5804 5802 5801 5799 5799 5799 5798 5797 5797 5796 5795 5795 5796 5795 5795 5795 5795 5795
5835 5836 5837 5838 5838 5839 5840 5840 5841 5841 5842 5842 5842 5842 5842 5841 5841 5841 5841 5841 5841 5841 5841 5841 5841 5842 5842 5842 5842 5842 5842 5842 5842 5841 5841 5840 5839 5838 5837 5836 5835 5834 5833 5832 5831 5831 5830 5829 5829 5828 5827 5825 5824 5823 5822 5821 5820 5818 5817 5816 5814 5812 5810 5808 5806 5804 5802 5802 5800 5799 5797 5796 5796 5796 5795 5794 5793 5793 5792 5793 5793 5792 5792 5792 5792
5833 5834 5835 5835 5836 5837 5838 5838 5839 5839 5840 5840 5840 5840 5839 5839 5839 5839 5839 5839 5839 5839 5839 5839 5840 5840 5840 5840 5840 5840 5840 5840 5840 5840 5839 5839 5838 5837 5836 5835 5834 5833 5832 5831 5830 5829 5828 5828 5827 5826 5825 5824 5822 5821 5820 5819 5818 5816 5815 5814 5813 5810 5808 5806 5804 5802 5800 5799 5798 5797 5796 5794 5793 5793 5792 5791 5790 5790 5789 5789 5790 5790 5790 5789 5790
5831 5831 5832 5833 5834 5835 5835 5836 5837 5837 5838 5838 5838 5838 5837 5837 5836 5837 5837 5837 5838 5838 5838 5838 5838 5839 5839 5839 5839 5839 5839 5839 5838 5838 5838 5837 5836 5835 5834 5833 5832 5831 5830 5830 5829 5828 5827 5826 5826 5825 5823 5822 5820 5819 5818 5817 5816 5814 5813 5812 5810 5808 5806 5804 5802 5799 5797 5795 5794 5793 5792 5791 5790 5789 5789 5788 5787 5787 5786 5786 5786 5787 5787 5787 5787
5827 5828 5829 5830 5831 5832 5833 5834 5835 5836 5836 5836 5836 5836 5835 5834 5834 5835 5835 5836 5836 5836 5836 5837 5837 5837 5837 5837 5837 5837 5837 5837 5837 5836 5836 5836 5835 5834 5833 5832 5831 5830 5829 5828 5828 5827 5826 5825 5824 5823 5822 5820 5819 5817 5816 5815 5814 5812 5811 5809 5808 5806 5804 5802 5799 5797 5795 5792 5790 5789 5787 5786 5786 5785 5785 5785 5784 5784 5783 5782 5783 5783 5784 5784 5784
5824 5825 5826 5827 5829 5830 5831 5832 5833 5834 5834 5834 5834 5833 5833 5833 5833 5834 5834 5834 5834 5835 5835 5835 5835 5836 5836 5836 5836 5836 5836 5835 5835 5835 5834 5834 5833 5832 5832 5830 5830 5829 5828 5827 5826 5826 5824 5823 5822 5821 5820 5819 5817 5816 5814 5813 5811 5810 5808 5807 5805 5803 5802 5799 5797 5795 5792 5789 5787 5785 5784 5783 5782 5782 5782 5781 5781 5780 5779 5779 5779 5779 5780 5781 5781
5819 5821 5823 5825 5827 5828 5829 5830 5831 5831 5832 5832 5832 5832 5832 5832 5833 5832 5833 5833 5833 5833 5833 5834 5834 5834 5834 5834 5835 5835 5834 5834 5834 5833 5833 5832 5832 5831 5830 5829 5828 5828 5827 5826 5825 5824 5823 5822 5821 5819 5818 5817 5816 5814 5812 5811 5809 5808 5806 5805 5802 5800 5798 5796 5794 5792 5789 5786 5784 5782 5781 5781 5779 5779 5779 5778 5778 5776 5776 5776 5776 5775 5776 5777 5777
5814 5817 5821 5823 5824 5826 5826 5827 5828 5830 5830 5831 5831 5831 5831 5831 5831 5831 5832 5832 5831 5832 5832 5832 5832 5832 5833 5833 5833 5833 5832 5832 5832 5832 5831 5831 5830 5829 5829 5828 5827 5826 5825 5824 5823 5822 5821 5820 5819 5818 5817 5815 5813 5812 5810 5809 5808 5806 5804 5802 5800 5798 5795 5793 5791 5788 5785 5782 5780 5779 5779 5778 5777 5776 5775 5773 5773 5773 5772 5773 5773 5772 5773 5774 5774
5813 5816 5819 5821 5822 5823 5823 5825 5827 5829 5829 5830 5830 5830 5830 5830 5831 5830 5830 5830 5829 5830 5831 5830 5831 5831 5831 5832 5831 5831 5831 5830 5830 5830 5830 5829 5829 5828 5827 5827 5826 5825 5824 5823 5822 5821 5820 5819 5818 5817 5815 5814 5812 5810 5808 5807 5806 5804 5802 5800 5797 5795 5793 5790 5787 5784 5781 5778 5777 5775 5775 5774 5772 5772 5771 5769 5769 5769 5769 5769 5770 5769 5769 5770 5771
5816 5818 5818 5819 5820 5821 5822 5824 5826 5827 5827 5828 5828 5828 5828 5829 5830 5828 5827 5828 5828 5829 5829 5829 5830 5830 5830 5830 5830 5829 5829 5829 5829 5829 5828 5828 5827 5827 5826 5825 5824 5824 5823 5822 5821 5819 5818 5817 5816 5815 5813 5812 5810 5808 5807 5805 5803 5801 5799 5797 5795 5793 5790 5787 5784 5780 5776 5774 5773 5772 5771 5769 5768 5767 5766 5766 5765 5765 5764 5765 5766 5766 5767 5767 5768
5819 5820 5820 5819 5820 5821 5821 5823 5824 5825 5825 5825 5825 5825 5827 5828 5828 5826 5825 5827 5827 5827 5828 5828 5828 5829 5829 5829 5828 5828 5828 5828 5828 5827 5827 5826 5826 5825 5824 5824 5823 5822 5821 5820 5819 5818 5817 5815 5814 5813 5811 5810 5808 5806 5804 5803 5801 5798 5796 5794 5792 5790 5788 5784 5781 5777 5773 5771 5770 5768 5767 5765 5763 5762 5761 5761 5761 5761 5761 5762 5762 5763 5764 5764 5764
5819 5820 5819 5818 5820 5820 5819 5821 5823 5824 5824 5823 5823 5824 5826 5826 5825 5824 5823 5825 5826 5826 5827 5827 5828 5828 5827 5827 5826 5826 5826 5826 5826 5826 5825 5825 5824 5824 5823 5822 5821 5820 5819 5818 5817 5816 5815 5814 5812 5811 5809 5808 5806 5803 5802 5800 5798 5796 5793 5791 5789 5787 5785 5781 5778 5775 5771 5768 5766 5764 5762 5761 5758 5756 5755 5756 5757 5757 5758 5759 5759 5759 5760 5760 5761
5816 5817 5816 5817 5818 5817 5817 5820 5822 5823 5823 5822 5822 5823 5825 5825 5823 5822 5822 5824 5824 5825 5825 5826 5826 5826 5825 5825 5825 5825 5825 5825 5825 5825 5824 5824 5823 5822 5821 5820 5819 5819 5818 5817 5816 5814 5813 5812 5810 5809 5807 5805 5804 5801 5799 5798 5796 5794 5791 5788 5786 5784 5781 5778 5776 5773 5768 5765 5763 5761 5759 5757 5755 5753 5752 5751 5752 5753 5754 5755 5756 5756 5756 5757 5758
5813 5814 5814 5815 5815 5815 5816 5818 5821 5822 5821 5821 5821 5822 5824 5824 5821 5821 5822 5823 5823 5823 5824 5824 5825 5824 5824 5824 5824 5824 5824 5824 5824 5823 5823 5822 5821 5820 5819 5819 5818 5817 5816 5815 5814 5813 5811 5810 5808 5807 5805 5803 5801 5799 5797 5795 5793 5791 5789 5786 5783 5781 5779 5776 5773 5771 5767 5762 5760 5758 5756 5754 5752 5751 5749 5747 5747 5748 5750 5751 5752 5753 5754 5755 5756
5811 5812 5812 5812 5812 5813 5814 5816 5819 5820 5820 5820 5820 5821 5823 5821 5819 5820 5821 5822 5822 5822 5823 5823 5823 5823 5822 5822 5823 5822 5823 5823 5823 5822 5821 5820 5819 5819 5818 5817 5816 5815 5814 5813 5812 5810 5809 5808 5806 5804 5803 5801 5799 5797 5795 5793 5791 5789 5787 5784 5781 5777 5775 5773 5770 5767 5764 5761 5756 5754 5753 5751 5749 5747 5745 5744 5744 5744 5746 5748 5749 5750 5751 5752 5753
5810 5809 5809 5809 5811 5812 5813 5814 5816 5818 5819 5819 5818 5819 5820 5819 5818 5819 5820 5821 5821 5821 5821 5822 5821 5821 5821 5821 5821 5821 5822 5822 5821 5821 5820 5819 5818 5817 5816 5816 5815 5813 5812 5811 5810 5808 5807 5805 5804 5802 5800 5798 5797 5795 5793 5791 5789 5786 5784 5782 5779 5775 5772 5770 5768 5763 5760 5758 5755 5751 5749 5747 5745 5743 5741 5741 5741 5741 5742 5744 5746 5747 5748 5749 5750
5808 5807 5807 5808 5810 5811 5812 5813 5814 5815 5816 5817 5817 5818 5818 5816 5817 5818 5819 5819 5819 5819 5820 5820 5820 5820 5820 5820 5820 5820 5820 5820 5820 5819 5818 5817 5817 5816 5815 5814 5813 5812 5810 5809 5807 5806 5804 5803 5801 5800 5798 5796 5794 5792 5791 5789 5787 5784 5782 5780 5777 5774 5771 5768 5766 5762 5757 5755 5753 5749 5746 5744 5741 5740 5738 5738 5738 5739 5740 5741 5743 5744 5745 5746 5747
5806 5805 5806 5808 5809 5809 5809 5810 5812 5813 5814 5814 5815 5816 5815 5815 5816 5817 5817 5818 5818 5818 5818 5818 5819 5819 5819 5819 5820 5820 5819 5819 5818 5817 5817 5816 5815 5814 5814 5812 5811 5810 5808 5807 5805 5804 5802 5801 5799 5797 5796 5794 5792 5790 5788 5786 5784 5782 5780 5778 5776 5773 5770 5766 5764 5761 5756 5753 5750 5747 5745 5742 5739 5737 5736 5736 5736 5737 5738 5738 5739 5740 5741 5743 5744
5804 5803 5805 5807 5807 5807 5809 5809 5809 5811 5812 5813 5814 5814 5813 5814 5815 5815 5816 5816 5816 5816 5816 5817 5817 5817 5817 5818 5818 5818 5818 5817 5817 5816 5815 5815 5814 5813 5811 5810 5809 5808 5806 5805 5803 5802 5800 5798 5797 5795 5793 5792 5790 5788 5786 5784 5782 5780 5778 5776 5774 5771 5768 5765 5761 5758 5754 5751 5748 5746 5743 5740 5738 5736 5734 5734 5734 5735 5736 5736 5736 5737 5738 5740 5741